This demonstration page uses our WeatherBlox Daily Observations layout. Learn more.

Left ArrowRight Arrow

40.92945, -100.16068

Hourly Observations for July 1, 2022

Temp ( °F °C ) Dew Point ( °F °C ) Humidity (%) Winds ( mph kmh ) Pressure ( in mb ) Visibility ( mi km ) Precip ( " mm )
12:15 am 00:15 Mostly Cloudy with Light Rain 75 24 61 16.3 62 62 NE 9 15 29.93 1013 10 16 0.00 0.00
12:35 am 00:35 Mostly Cloudy with Light Rain 73 22.5 63 17.2 72 72 ENE 8 13 29.94 1014 10 16 0.00 0.00
12:55 am 00:55 Clear 72 22.4 63 17.1 72 72 NE 9 15 29.94 1014 10 16 0.00 0.00
1:15 am 01:15 Clear 73 23 62 16.4 66 66 ENE 8 13 29.94 1014 10 16 0.00 0.00
1:35 am 01:35 Clear 73 22.6 61 16.1 67 67 ENE 8 13 29.93 1014 10 16 0.00 0.00
1:55 am 01:55 Clear 73 22.7 59 14.8 61 61 ENE 12 19 29.94 1014 10 16 0.00 0.00
2:15 am 02:15 Clear 72 22.1 59 15 64 64 E 8 13 29.94 1014 10 16 0.00 0.00
2:35 am 02:35 Clear 71 21.5 59 15.2 67 67 E 8 13 29.95 1014 10 16 0.00 0.00
2:55 am 02:55 Clear 70 21.2 59 15 68 68 E 8 13 29.95 1014 10 16 0.00 0.00
3:15 am 03:15 Clear 69 20.7 59 15 70 70 E 8 13 29.96 1014 10 16 0.00 0.00
3:35 am 03:35 Clear with Nearby Thunderstorms 69 20.5 59 15.1 71 71 E 6 9 29.96 1014 10 16 0.00 0.00
3:55 am 03:55 Clear 68 20 60 15.5 75 75 Calm 29.96 1015 10 16 0.00 0.00
4:15 am 04:15 Clear 67 19.3 60 15.8 80 80 NNW 5 7 29.98 1015 10 16 0.00 0.00
4:35 am 04:35 Partly Cloudy 69 20.5 60 15.5 73 73 NW 24 39 30.01 1016 10 16 0.00 0.00
4:55 am 04:55 Mostly Cloudy 66 18.9 58 14.7 77 77 NNW 21 33 30.03 1017 10 16 0.00 0.00
5:15 am 05:15 Cloudy 65 18.3 58 14.7 80 80 N 18 30 30.04 1017 10 16 0.00 0.00
5:35 am 05:35 Cloudy with Light Rain 65 18.1 58 14.5 80 80 N 17 28 30.03 1017 10 16 0.00 0.00
5:55 am 05:55 Mostly Cloudy with Light Rain 64 17.5 59 15 85 85 NNE 20 31 30.03 1017 10 16 0.00 0.00
6:15 am 06:15 Mostly Cloudy with Light Rain 63 17 59 15.1 89 89 NNE 16 26 30.03 1017 10 16 0.00 0.00
6:35 am 06:35 Cloudy with Light Rain 62 16.7 60 15.3 92 92 NE 15 24 30.04 1017 10 16 0.01 0.25
6:55 am 06:55 Mostly Cloudy with Light Rain 62 16.8 60 15.3 91 91 ENE 16 26 30.03 1017 10 16 0.02 0.51
7:15 am 07:15 Cloudy with Light Rain 62 16.6 60 15.4 93 93 ENE 21 33 29.99 1016 7 11 0.02 0.51
7:35 am 07:35 Partly Cloudy with Light Rain 62 16.8 60 15.5 92 92 NE 14 22 30.01 1016 10 16 0.02 0.51
7:55 am 07:55 Partly Cloudy with Light Rain 62 16.9 60 15.6 92 92 ENE 9 15 30.03 1017 10 16 0.03 0.76
8:15 am 08:15 Sunny 63 17.2 60 15.7 91 91 E 13 20 30.03 1017 10 16 0.00 0.00
8:35 am 08:35 Partly Cloudy 64 17.5 60 15.7 89 89 ESE 7 11 30.04 1017 10 16 0.00 0.00
8:55 am 08:55 Mostly Cloudy with Light Rain 64 17.9 61 15.9 88 88 ESE 8 13 30.04 1017 10 16 0.00 0.00
9:15 am 09:15 Mostly Cloudy 65 18.2 61 16.2 88 88 E 8 13 30.05 1018 10 16 0.00 0.00
9:35 am 09:35 Partly Cloudy 65 18.6 62 16.7 89 89 E 9 15 30.04 1017 10 16 0.00 0.00
9:55 am 09:55 Partly Cloudy 66 19 62 16.7 87 87 E 6 9 30.04 1017 10 16 0.00 0.00
10:15 am 10:15 Partly Cloudy 66 19.1 63 17.1 88 88 NE 7 11 30.06 1018 10 16 0.00 0.00
10:35 am 10:35 Partly Cloudy 66 18.9 63 17 89 89 ESE 6 9 30.05 1018 10 16 0.00 0.00
10:55 am 10:55 Partly Cloudy with Light Rain 66 19.1 63 17 88 88 SE 10 17 30.04 1017 10 16 0.00 0.00
11:15 am 11:15 Partly Cloudy with Rain 66 19 63 17 88 88 E 10 17 30.05 1018 7 11 0.01 0.25
11:35 am 11:35 Partly Cloudy with Light Rain 67 19.2 63 17.4 89 89 E 7 11 30.06 1018 10 16 0.01 0.25
11:55 am 11:55 Sunny 67 19.2 64 17.6 91 91 E 8 13 30.06 1018 10 16 0.01 0.25
12:15 pm 12:15 Sunny 68 20.2 64 17.8 86 86 ESE 8 13 30.05 1018 10 16 0.00 0.00
12:35 pm 12:35 Sunny 70 21.3 64 17.6 80 80 ENE 7 11 30.04 1017 10 16 0.00 0.00
12:55 pm 12:55 Sunny 72 22.3 63 17.1 73 73 E 8 13 30.02 1017 10 16 0.00 0.00
1:15 pm 13:15 Sunny 74 23.1 62 16.7 67 67 E 12 19 30.02 1016 10 16 0.00 0.00
1:35 pm 13:35 Sunny 74 23.6 62 16.6 65 65 E 9 15 30.00 1016 10 16 0.00 0.00
1:55 pm 13:55 Sunny 75 23.8 61 15.9 61 61 E 10 17 29.99 1016 10 16 0.00 0.00
2:15 pm 14:15 Sunny 76 24.5 62 16.7 62 62 E 8 13 29.98 1015 10 16 0.00 0.00
2:35 pm 14:35 Sunny 77 25 62 16.6 60 60 SE 8 13 29.97 1015 10 16 0.00 0.00
2:55 pm 14:55 Sunny 78 25.8 61 16.2 55 55 ENE 10 17 29.96 1015 10 16 0.00 0.00
3:15 pm 15:15 Sunny 79 25.9 60 15.4 52 52 ESE 12 19 29.96 1015 10 16 0.00 0.00
3:35 pm 15:35 Sunny 80 26.4 59 15.2 50 50 ESE 10 17 29.95 1014 10 16 0.00 0.00
3:55 pm 15:55 Sunny 80 26.5 60 15.3 50 50 E 12 19 29.94 1014 10 16 0.00 0.00
4:15 pm 16:15 Sunny 81 27.1 59 14.8 47 47 ESE 9 15 29.93 1014 10 16 0.00 0.00
4:35 pm 16:35 Sunny 82 27.5 60 15.4 48 48 E 10 17 29.92 1013 10 16 0.00 0.00
4:55 pm 16:55 Sunny 81 27.4 60 15.6 49 49 E 9 15 29.91 1013 10 16 0.00 0.00
5:15 pm 17:15 Sunny 82 27.7 60 15.3 47 47 ESE 10 17 29.91 1013 10 16 0.00 0.00
5:35 pm 17:35 Sunny 82 27.7 60 15.6 48 48 ESE 9 15 29.90 1012 10 16 0.00 0.00
5:55 pm 17:55 Sunny 82 27.7 62 16.4 50 50 E 10 17 29.89 1012 10 16 0.00 0.00
6:15 pm 18:15 Sunny 82 27.6 63 17.1 53 53 SE 10 17 29.89 1012 10 16 0.00 0.00
6:35 pm 18:35 Sunny 81 27.2 64 17.6 56 56 ESE 10 17 29.88 1012 10 16 0.00 0.00
6:55 pm 18:55 Sunny 81 27 63 17.2 55 55 ESE 12 19 29.88 1012 10 16 0.00 0.00
7:15 pm 19:15 Sunny 80 26.7 63 17.4 57 57 E 15 24 29.88 1012 10 16 0.00 0.00
7:35 pm 19:35 Sunny 80 26.5 62 16.9 56 56 E 13 20 29.88 1012 10 16 0.00 0.00
7:55 pm 19:55 Sunny 79 26 63 17.1 58 58 E 8 13 29.88 1012 10 16 0.00 0.00
8:15 pm 20:15 Sunny 78 25.6 64 17.5 61 61 E 10 17 29.88 1012 10 16 0.00 0.00
8:35 pm 20:35 Sunny 77 25.1 62 16.9 60 60 ESE 9 15 29.90 1012 10 16 0.00 0.00
8:55 pm 20:55 Sunny 76 24.5 61 16 59 59 ESE 8 13 29.91 1013 10 16 0.00 0.00
9:15 pm 21:15 Clear 74 23.6 61 16 63 63 ESE 8 13 29.92 1013 10 16 0.00 0.00
9:35 pm 21:35 Clear 74 23.1 61 16.1 65 65 ESE 9 15 29.93 1013 10 16 0.00 0.00
9:55 pm 21:55 Clear 73 22.8 61 16.2 66 66 ESE 9 15 29.93 1013 10 16 0.00 0.00
10:15 pm 22:15 Clear 73 22.5 61 16.1 67 67 ESE 9 15 29.93 1014 10 16 0.00 0.00
10:35 pm 22:35 Clear 71 21.6 61 16.3 72 72 ESE 10 17 29.95 1014 10 16 0.00 0.00
10:55 pm 22:55 Clear 70 21.3 61 16.3 73 73 ESE 7 11 29.96 1015 10 16 0.00 0.00
11:15 pm 23:15 Clear 69 20.5 62 16.5 78 78 ESE 9 15 29.97 1015 10 16 0.00 0.00
11:35 pm 23:35 Clear 68 20 62 16.8 82 82 ESE 6 9 29.97 1015 10 16 0.00 0.00
11:55 pm 23:55 Clear 67 19.7 63 17 85 85 ESE 7 11 29.98 1015 10 16 0.00 0.00

Powered by AerisWeather